Date String (YYYY-MM-DD hh:mm:ss) UTC,Instrument flags,Ambient pressure (hPa),Sample flow (lpm),Bypass flow (lpm),Sample temperature (°C),Ambient temperature (°C),ASC tube jacket temperature (°C),LED temperature (°C),Box temperature (°C),Sample RH (%),Span deviation,Mass concentration (μg/m³),Mass concentration (μg/m³),Mass concentration (μg/m³)
DateTimeUTC,F1_M11,P_M11,Q1_M11,Q2_M11,T1_M11,T2_M11,T3_M11,T4_M11,T5_M11,U1_M11,ZSPAN_M11,X0_M11,X2_M11,X1_M11
2021-11-19 18:00:00,,0824.9,5.01,0.00,24.9,24.2,00.0,33.7,26.8,09.1,0000.0,0015.99,0004.53,0003.54
2021-11-19 18:01:00,,0824.9,4.99,0.00,24.9,24.3,00.0,33.7,26.8,09.3,0000.0,0015.75,0004.52,0003.52
2021-11-19 18:02:00,,0824.9,5.00,0.00,24.9,24.3,00.0,33.7,26.8,09.2,0000.0,0014.96,0004.52,0003.53
2021-11-19 18:03:00,,0824.9,4.99,0.00,24.9,24.3,00.0,33.7,26.8,09.1,0000.0,0013.60,0004.58,0003.53
2021-11-19 18:04:00,,0824.9,5.00,0.00,24.9,24.3,00.0,33.8,26.8,09.1,0000.0,0012.81,0004.52,0003.52
2021-11-19 18:05:00,,0824.7,5.00,0.00,25.0,24.3,00.0,33.8,26.9,09.0,0000.0,0012.83,0004.50,0003.51
2021-11-19 18:06:00,,0824.6,5.01,0.00,25.0,24.3,00.0,33.8,26.9,09.1,0000.0,0012.54,0004.51,0003.51
2021-11-19 18:07:00,,0824.7,5.00,0.00,25.0,24.4,00.0,33.8,26.9,09.1,0000.0,0011.63,0004.46,0003.49
2021-11-19 18:08:00,,0824.6,4.99,0.00,25.0,24.4,00.0,33.8,26.9,09.1,0000.0,0011.05,0004.40,0003.46
2021-11-19 18:09:00,,0824.6,5.00,0.00,25.0,24.4,00.0,33.9,27.0,09.1,0000.0,0011.62,0004.41,0003.43
2021-11-19 18:10:00,,0824.5,5.00,0.00,25.1,24.5,00.0,33.9,27.0,09.1,0000.0,0012.52,0004.42,0003.39
2021-11-19 18:11:00,,0824.4,5.00,0.00,25.1,24.5,00.0,33.9,27.0,09.1,0000.0,0013.22,0004.40,0003.36
2021-11-19 18:12:00,,0824.3,5.01,0.00,25.1,24.5,00.0,33.9,27.1,09.1,0000.0,0013.18,0004.42,0003.34
2021-11-19 18:13:00,,0824.3,4.99,0.00,25.1,24.5,00.0,34.0,27.1,09.0,0000.0,0013.17,0004.38,0003.32
2021-11-19 18:14:00,,0824.3,5.00,0.00,25.1,24.5,00.0,34.0,27.1,09.0,0000.0,0014.59,0004.35,0003.29
2021-11-19 18:15:00,,0824.4,5.01,0.00,25.2,24.5,00.0,34.0,27.1,09.1,0000.0,0015.49,0004.35,0003.26
2021-11-19 18:16:00,,0824.4,4.99,0.00,25.2,24.5,00.0,34.0,27.1,09.2,0000.0,0016.01,0004.35,0003.23
2021-11-19 18:17:00,,0824.5,5.02,0.00,25.2,24.6,00.0,34.0,27.1,09.1,0000.0,0016.77,0004.35,0003.19
2021-11-19 18:18:00,,0824.3,4.99,0.00,25.2,24.6,00.0,34.0,27.1,09.1,0000.0,0017.87,0004.34,0003.16
2021-11-19 18:19:00,,0824.3,4.99,0.00,25.2,24.6,00.0,34.1,27.1,09.1,0000.0,0019.84,0004.38,0003.15
2021-11-19 18:20:00,,0824.3,5.01,0.00,25.3,24.6,00.0,34.1,27.2,09.0,0000.0,0020.40,0004.34,0003.12
2021-11-19 18:21:00,,0824.2,5.00,0.00,25.3,24.7,00.0,34.1,27.2,09.1,0000.0,0021.35,0004.33,0003.11
2021-11-19 18:22:00,,0824.2,5.00,0.00,25.3,24.7,00.0,34.1,27.2,09.0,0000.0,0020.92,0004.33,0003.08
2021-11-19 18:23:00,,0824.2,5.01,0.00,25.3,24.7,00.0,34.1,27.3,08.9,0000.0,0022.15,0004.27,0003.04
2021-11-19 18:24:00,,0824.1,4.99,0.00,25.3,24.7,00.0,34.2,27.3,09.0,0000.0,0022.69,0004.25,0003.00
2021-11-19 18:25:00,,0824.2,5.00,0.00,25.3,24.7,00.0,34.2,27.3,09.1,0000.0,0021.45,0004.21,0002.98
2021-11-19 18:26:00,,0824.2,4.99,0.00,25.4,24.7,00.0,34.2,27.3,09.1,0000.0,0021.15,0004.24,0003.00
2021-11-19 18:27:00,,0824.3,5.00,0.00,25.4,24.8,00.0,34.2,27.3,09.1,0000.0,0021.99,0004.24,0003.02
2021-11-19 18:28:00,,0824.2,5.01,0.00,25.4,24.8,00.0,34.2,27.3,09.1,0000.0,0021.66,0004.19,0003.02
2021-11-19 18:29:00,,0824.2,4.98,0.00,25.4,24.8,00.0,34.3,27.3,09.1,0000.0,0021.14,0004.15,0003.03
2021-11-19 18:30:00,,0824.3,5.00,0.00,25.4,24.8,00.0,34.3,27.3,09.1,0000.0,0019.68,0004.13,0003.03
2021-11-19 18:31:00,,0824.3,5.01,0.00,25.5,24.8,00.0,34.3,27.4,09.0,0000.0,0018.94,0004.11,0003.02
2021-11-19 18:32:00,,0824.2,5.00,0.00,25.5,24.9,00.0,34.3,27.4,09.1,0000.0,0017.32,0004.06,0003.01
2021-11-19 18:33:00,,0824.1,4.99,0.00,25.5,24.9,00.0,34.3,27.4,09.1,0000.0,0017.55,0003.99,0002.99
2021-11-19 18:34:00,,0824.1,5.00,0.00,25.5,24.9,00.0,34.3,27.4,09.1,0000.0,0017.29,0004.04,0003.01
2021-11-19 18:35:00,,0824.1,5.01,0.00,25.5,24.9,00.0,34.4,27.4,09.2,0000.0,0016.08,0004.00,0003.01
2021-11-19 18:36:00,,0824.0,5.00,0.00,25.5,24.9,00.0,34.4,27.5,09.1,0000.0,0016.60,0004.03,0003.00
2021-11-19 18:37:00,,0824.0,5.00,0.00,25.5,24.9,00.0,34.4,27.5,09.1,0000.0,0015.76,0004.00,0002.99
2021-11-19 18:38:00,,0824.0,4.99,0.00,25.6,25.0,00.0,34.4,27.5,09.1,0000.0,0015.06,0003.99,0003.00
2021-11-19 18:39:00,,0824.0,5.01,0.00,25.6,25.0,00.0,34.4,27.5,08.9,0000.0,0014.54,0004.00,0002.98
2021-11-19 18:40:00,,0824.0,4.99,0.00,25.6,25.0,00.0,34.4,27.5,09.0,0000.0,0014.12,0004.01,0002.98
2021-11-19 18:41:00,,0824.0,5.01,0.00,25.6,25.0,00.0,34.4,27.5,08.9,0000.0,0013.59,0004.02,0002.96
2021-11-19 18:42:00,,0824.0,4.99,0.00,25.6,25.0,00.0,34.5,27.5,09.0,0000.0,0013.57,0004.05,0002.97
2021-11-19 18:43:00,,0823.9,4.99,0.00,25.6,25.0,00.0,34.5,27.5,09.0,0000.0,0014.17,0004.07,0002.99
2021-11-19 18:44:00,,0824.0,5.00,0.00,25.7,25.1,00.0,34.5,27.6,09.0,0000.0,0014.86,0004.16,0003.03
2021-11-19 18:45:00,,0824.0,4.99,0.00,25.7,25.1,00.0,34.5,27.6,09.0,0000.0,0013.51,0004.18,0003.05
2021-11-19 18:46:00,,0824.0,5.01,0.00,25.7,25.1,00.0,34.5,27.6,09.0,0000.0,0013.85,0004.23,0003.06
2021-11-19 18:47:00,,0824.0,5.00,0.00,25.7,25.1,00.0,34.6,27.7,09.0,0000.0,0014.32,0004.29,0003.12
2021-11-19 18:48:00,,0824.0,5.00,0.00,25.8,25.2,00.0,34.6,27.7,09.0,0000.0,0014.70,0004.33,0003.14
2021-11-19 18:49:00,,0824.0,5.00,0.00,25.8,25.2,00.0,34.6,27.7,08.9,0000.0,0015.39,0004.45,0003.16
2021-11-19 18:50:00,,0824.0,5.00,0.00,25.8,25.2,00.0,34.6,27.7,08.9,0000.0,0017.53,0004.61,0003.20
2021-11-19 18:51:00,,0824.0,4.99,0.00,25.8,25.2,00.0,34.6,27.7,09.0,0000.0,0019.37,0004.61,0003.22
2021-11-19 18:52:00,,0823.9,5.01,0.00,25.8,25.2,00.0,34.7,27.7,09.0,0000.0,0020.11,0004.63,0003.23
2021-11-19 18:53:00,,0823.7,5.01,0.00,25.9,25.3,00.0,34.7,27.8,09.0,0000.0,0021.07,0004.68,0003.25
2021-11-19 18:54:00,,0823.7,4.99,0.00,25.9,25.3,00.0,34.7,27.8,09.0,0000.0,0021.43,0004.71,0003.25
2021-11-19 18:55:00,,0823.9,5.00,0.00,25.9,25.3,00.0,34.7,27.8,09.4,0000.0,0020.08,0004.70,0003.26
2021-11-19 18:56:00,,0823.9,5.00,0.00,25.9,25.3,00.0,34.7,27.8,09.3,0000.0,0020.22,0004.65,0003.27
2021-11-19 18:57:00,,0823.9,5.00,0.00,26.0,25.4,00.0,34.8,27.8,09.4,0000.0,0020.09,0004.56,0003.27
2021-11-19 18:58:00,,0823.9,5.02,0.00,26.0,25.4,00.0,34.8,27.9,09.3,0000.0,0019.07,0004.50,0003.26
2021-11-19 18:59:00,,0823.8,4.99,0.00,26.0,25.4,00.0,34.8,27.9,09.4,0000.0,0018.38,0004.45,0003.25
